| time (UTC) | temp F | wind direction | speed MPH | gust MPH | rain 1hr in | rain 24hr in | rain mn in | humidity % | barometer mb |
| 20260505094831 | 60 | 220 | 1.0 | 8.0 | 0.00 | 0.00 | 0.00 | 76 | 1010.1 |
| 20260505093323 | 57 | 197 | 0.0 | 5.0 | 0.00 | 0.00 | 0.00 | 80 | 1009.9 |
| 20260505091820 | 56 | 200 | 0.0 | 5.0 | 0.00 | 0.00 | 0.00 | 82 | 1010.0 |
| 20260505090332 | 57 | 198 | 0.0 | 0.0 | 0.00 | 0.00 | 0.00 | 79 | 1009.9 |
| 20260505084828 | 58 | 198 | 0.0 | 0.0 | 0.00 | 0.00 | 0.00 | 76 | 1009.9 |
| 20260505083324 | 60 | 198 | 0.0 | 0.0 | 0.00 | 0.00 | 0.00 | 74 | 1010.0 |
| 20260505081830 | 61 | 198 | 0.0 | 1.0 | 0.00 | 0.00 | 0.00 | 72 | 1009.9 |
| 20260505080324 | 62 | 198 | 0.0 | 7.0 | 0.00 | 0.00 | 0.00 | 70 | 1009.9 |
| 20260505074817 | 62 | 218 | 2.0 | 11.0 | 0.00 | 0.00 | 0.00 | 70 | 1010.0 |
| 20260505073332 | 61 | 169 | 4.0 | 10.0 | 0.00 | 0.00 | 0.00 | 70 | 1010.0 |
| 20260505071818 | 61 | 232 | 1.0 | 10.0 | 0.00 | 0.00 | 0.00 | 71 | 1010.0 |
| 20260505070330 | 60 | 217 | 2.0 | 5.0 | 0.00 | 0.00 | 0.00 | 71 | 1010.0 |
| 20260505064843 | 60 | 224 | 2.0 | 6.0 | 0.00 | 0.00 | 0.00 | 73 | 1009.9 |
| 20260505063313 | 60 | 209 | 1.0 | 8.0 | 0.00 | 0.00 | 0.00 | 72 | 1010.0 |
| 20260505061852 | 60 | 214 | 4.0 | 10.0 | 0.00 | 0.00 | 0.00 | 71 | 1009.8 |
| 20260505060318 | 59 | 232 | 0.0 | 3.0 | 0.00 | 0.00 | 0.00 | 73 | 1009.9 |
| 20260505054826 | 60 | 232 | 1.0 | 4.0 | 0.00 | 0.00 | 0.00 | 71 | 1009.8 |
| 20260505053324 | 61 | 230 | 2.0 | 6.0 | 0.00 | 0.00 | 0.00 | 68 | 1010.0 |
| 20260505051834 | 61 | 204 | 2.0 | 9.0 | 0.00 | 0.00 | 0.00 | 68 | 1010.0 |
| 20260505050352 | 61 | 217 | 2.0 | 7.0 | 0.00 | 0.00 | 0.00 | 67 | 1010.1 |
| 20260505040314 | 62 | 225 | 2.0 | 6.0 | 0.00 | 0.00 | 0.00 | 61 | 1009.9 |
| 20260505034831 | 63 | 220 | 2.0 | 7.0 | 0.00 | 0.00 | 0.00 | 58 | 1009.9 |
| 20260505033346 | 63 | 215 | 2.0 | 7.0 | 0.00 | 0.00 | 0.00 | 56 | 1009.8 |
| 20260505031827 | 63 | 188 | 1.0 | 5.0 | 0.00 | 0.00 | 0.00 | 55 | 1010.0 |
| 20260505030323 | 63 | 180 | 1.0 | 4.0 | 0.00 | 0.00 | 0.00 | 55 | 1009.9 |
| 20260505024816 | 63 | 218 | 2.0 | 7.0 | 0.00 | 0.00 | 0.00 | 56 | 1010.1 |
| 20260505023332 | 62 | 219 | 2.0 | 6.0 | 0.00 | 0.00 | 0.00 | 58 | 1010.2 |
| 20260505021843 | 59 | 219 | 1.0 | 4.0 | 0.00 | 0.00 | 0.00 | 67 | 1010.2 |
| 20260505020318 | 59 | 219 | 0.0 | 2.0 | 0.00 | 0.00 | 0.00 | 70 | 1010.2 |
| 20260505014833 | 59 | 219 | 0.0 | 0.0 | 0.00 | 0.00 | 0.00 | 68 | 1010.2 |
| 20260505013325 | 59 | 219 | 0.0 | 0.0 | 0.00 | 0.00 | 0.00 | 67 | 1010.1 |
| 20260505011822 | 60 | 219 | 0.0 | 0.0 | 0.00 | 0.00 | 0.00 | 66 | 1010.0 |
| 20260505010329 | 61 | 219 | 0.0 | 0.0 | 0.00 | 0.00 | 0.00 | 58 | 1009.8 |
| 20260505004826 | 63 | 219 | 0.0 | 0.0 | 0.00 | 0.00 | 0.00 | 59 | 1009.6 |
| 20260505003320 | 65 | 219 | 0.0 | 0.0 | 0.00 | 0.00 | 0.00 | 51 | 1009.4 |
| 20260505001816 | 67 | 219 | 0.0 | 4.0 | 0.00 | 0.00 | 0.00 | 47 | 1009.4 |
| 20260505000331 | 68 | 219 | 1.0 | 7.0 | 0.00 | 0.00 | 0.00 | 45 | 1009.2 |
| 20260504234841 | 69 | 216 | 0.0 | 2.0 | 0.00 | 0.00 | 0.00 | 43 | 1009.2 |
| 20260504233335 | 69 | 206 | 3.0 | 9.0 | 0.00 | 0.00 | 0.00 | 42 | 1009.1 |
| 20260504231828 | 70 | 224 | 2.0 | 9.0 | 0.00 | 0.00 | 0.00 | 41 | 1009.0 |
| 20260504230324 | 70 | 212 | 4.0 | 8.0 | 0.00 | 0.00 | 0.00 | 40 | 1009.0 |
| 20260504224814 | 70 | 232 | 5.0 | 10.0 | 0.00 | 0.00 | 0.00 | 40 | 1008.9 |
| 20260504223313 | 71 | 219 | 1.0 | 6.0 | 0.00 | 0.00 | 0.00 | 40 | 1009.1 |
| 20260504221828 | 70 | 203 | 5.0 | 11.0 | 0.00 | 0.00 | 0.00 | 39 | 1009.1 |
| 20260504220323 | 71 | 212 | 2.0 | 15.0 | 0.00 | 0.00 | 0.00 | 39 | 1009.1 |
| 20260504214822 | 71 | 194 | 4.0 | 8.0 | 0.00 | 0.00 | 0.00 | 40 | 1009.3 |
| 20260504213315 | 71 | 221 | 2.0 | 7.0 | 0.00 | 0.00 | 0.00 | 40 | 1009.3 |
| 20260504211828 | 71 | 145 | 4.0 | 11.0 | 0.00 | 0.00 | 0.00 | 39 | 1009.3 |
| 20260504210340 | 71 | 248 | 2.0 | 12.0 | 0.00 | 0.00 | 0.00 | 40 | 1009.2 |
| 20260504204829 | 71 | 214 | 5.0 | 9.0 | 0.00 | 0.00 | 0.00 | 38 | 1009.4 |
| 20260504203323 | 72 | 186 | 2.0 | 8.0 | 0.00 | 0.00 | 0.00 | 38 | 1009.3 |
| 20260504201816 | 72 | 209 | 6.0 | 11.0 | 0.00 | 0.00 | 0.00 | 36 | 1009.5 |
| 20260504200330 | 72 | 178 | 2.0 | 10.0 | 0.00 | 0.00 | 0.00 | 39 | 1009.5 |
| 20260504194821 | 72 | 171 | 1.0 | 12.0 | 0.00 | 0.00 | 0.00 | 38 | 1009.6 |
| 20260504193315 | 72 | 203 | 2.0 | 12.0 | 0.00 | 0.00 | 0.00 | 38 | 1009.6 |
| 20260504191827 | 72 | 246 | 0.0 | 8.0 | 0.00 | 0.00 | 0.00 | 38 | 1009.9 |
| 20260504190319 | 72 | 196 | 5.0 | 11.0 | 0.00 | 0.00 | 0.00 | 38 | 1010.2 |
| 20260504184849 | 71 | 179 | 6.0 | 12.0 | 0.00 | 0.00 | 0.00 | 38 | 1010.4 |
| 20260504183325 | 72 | 291 | 2.0 | 6.0 | 0.00 | 0.00 | 0.00 | 37 | 1010.4 |
| 20260504181821 | 72 | 296 | 3.0 | 10.0 | 0.00 | 0.00 | 0.00 | 38 | 1010.7 |
| 20260504180334 | 71 | 202 | 1.0 | 9.0 | 0.00 | 0.00 | 0.00 | 40 | 1010.9 |
| 20260504174843 | 71 | 232 | 2.0 | 13.0 | 0.00 | 0.00 | 0.00 | 39 | 1011.1 |
| 20260504173352 | 71 | 252 | 3.0 | 10.0 | 0.00 | 0.00 | 0.00 | 39 | 1011.3 |
| 20260504171817 | 69 | 207 | 2.0 | 11.0 | 0.00 | 0.00 | 0.00 | 43 | 1011.5 |
| 20260504170316 | 69 | 174 | 4.0 | 15.0 | 0.00 | 0.00 | 0.00 | 39 | 1011.8 |
| 20260504160331 | 68 | 234 | 2.0 | 10.0 | 0.00 | 0.00 | 0.00 | 43 | 1012.5 |
| 20260504150344 | 66 | 215 | 3.0 | 10.0 | 0.00 | 0.00 | 0.00 | 48 | 1013.2 |
| 20260504140328 | 62 | 213 | 3.0 | 6.0 | 0.00 | 0.00 | 0.00 | 58 | 1013.4 |
| 20260504130329 | 57 | 219 | 1.0 | 10.0 | 0.00 | 0.00 | 0.00 | 70 | 1013.9 |
| 20260504120317 | 53 | 203 | 3.0 | 9.0 | 0.00 | 0.00 | 0.00 | 78 | 1014.1 |
| 20260504110317 | 41 | 296 | 0.0 | 4.0 | 0.00 | 0.00 | 0.00 | 90 | 1014.5 |
| 20260504100327 | 37 | 298 | 0.0 | 1.0 | 0.00 | 0.00 | 0.00 | 90 | 1014.5 |